Torna al catalogo

STARLINK-38218

AttivoComunicazioniSSO
NORAD 100195·PAYLOAD·🇺🇸 United States

Lanciato Aug 1, 2026 da Vandenberg Space Force Base

Loading…

Prossimi Passaggi (prossime 24 ore)

TLE

AggiornatoSource: Space-Track

Epoca: Sep 14, 2026, 13:04 UTC

1 A0195U 26175S   26257.54502903  .00074857  00000-0  49790-3 0  9999
2 A0195  97.2839  99.7619 0001893  27.7439 332.3927 15.75210145  8243

Traccia STARLINK-38218 in tempo reale con AllMySat

Download on the App Store